EW7833 Weather Reports


Display with metric or nautical units.
time (UTC)temp
F
wind
direction
speed
MPH
gust
MPH
rain 1hr
in
rain 24hr
in
rain mn
in
humidity
%
barometer
mb
20201026103129 34 96 0.0 0.0 0.01 0.10 0.04 90 1020.8
20201026101637 34 96 0.0 0.0 0.01 0.10 0.04 90 1021.0
20201026094607 34 96 0.0 0.0 0.00 0.09 0.03 90 1021.3
20201026093140 34 96 0.0 0.0 0.00 0.09 0.03 90 1021.3
20201026091656 34 96 0.0 0.0 0.00 0.09 0.03 90 1021.8
20201026090254 34 96 0.0 1.0 0.00 0.09 0.03 90 1021.8
20201026084758 34 96 0.0 0.0 0.00 0.09 0.03 90 1021.8
20201026083152 34 96 0.0 1.0 0.01 0.09 0.03 91 1021.8
20201026081602 34 255 0.0 1.0 0.01 0.09 0.03 91 1021.9
20201026080148 34 255 0.0 1.0 0.02 0.09 0.03 90 1021.9
20201026074558 34 250 0.0 1.0 0.02 0.09 0.03 90 1022.1
20201026073129 34 248 0.0 1.0 0.01 0.08 0.02 90 1021.9
20201026071618 34 255 0.0 0.0 0.00 0.07 0.01 90 1022.0
20201026070050 34 112 0.0 0.0 0.00 0.07 0.01 90 1022.0
20201026064628 34 112 0.0 0.0 0.00 0.07 0.01 90 1022.2
20201026063139 34 114 0.0 0.0 0.00 0.07 0.01 90 1022.1
20201026061552 34 168 0.0 0.0 0.00 0.07 0.01 90 1022.1
20201026060059 34 220 0.0 0.0 0.00 0.07 0.01 90 1022.7
20201026054621 34 220 0.0 0.0 0.00 0.07 0.01 91 1022.7
20201026053059 33 220 0.0 0.0 0.00 0.07 0.01 91 1022.8
20201026051557 33 220 0.0 0.0 0.01 0.07 0.01 91 1022.8
20201026050044 33 220 0.0 0.0 0.01 0.07 0.01 92 1022.9
20201026044650 34 220 0.0 0.0 0.02 0.07 0.01 92 1023.1
20201026043107 34 221 0.0 0.0 0.02 0.07 0.01 92 1023.0
20201026041625 34 227 0.0 0.0 0.02 0.06 0.00 92 1023.1
20201026040056 34 241 0.0 0.0 0.02 0.06 0.00 92 1023.2
20201026034532 34 241 0.0 1.0 0.01 0.05 0.05 92 1023.4
20201026033056 34 252 0.0 1.0 0.01 0.05 0.05 92 1023.4
20201026031551 34 252 0.0 1.0 0.01 0.04 0.04 92 1023.2
20201026030134 35 210 0.0 1.0 0.01 0.04 0.04 92 1023.3
20201026024523 35 103 0.0 0.0 0.02 0.06 0.04 92 1023.3
20201026023118 35 103 0.0 0.0 0.02 0.06 0.04 92 1023.4
20201026021524 35 103 0.0 0.0 0.02 0.05 0.03 92 1023.6
20201026020030 35 96 0.0 0.0 0.02 0.05 0.03 92 1023.6
20201026014521 35 256 0.0 0.0 0.01 0.04 0.02 92 1023.7
20201026013020 35 98 0.0 1.0 0.02 0.04 0.02 92 1023.7
20201026011555 36 99 0.0 1.0 0.01 0.03 0.01 92 1023.8
20201026010034 36 105 0.0 1.0 0.01 0.03 0.01 92 1023.8
20201026004519 36 98 0.0 1.0 0.01 0.04 0.01 92 1023.8
20201026003041 36 98 0.0 1.0 0.00 0.03 0.00 92 1023.9
20201026001550 36 98 0.0 1.0 0.00 0.03 0.00 91 1023.9
20201026000036 36 67 0.0 1.0 0.00 0.03 0.00 90 1023.7
20201025234525 36 101 0.0 1.0 0.00 0.03 0.00 90 1023.7
20201025233053 37 109 0.0 1.0 0.00 0.03 0.00 89 1023.7
20201025231527 37 113 0.0 1.0 0.00 0.03 0.00 88 1023.7
20201025230021 37 122 0.0 1.0 0.00 0.03 0.00 87 1023.8
20201025224528 38 76 0.0 1.0 0.00 0.03 0.00 87 1023.7
20201025223025 38 98 0.0 0.0 0.00 0.03 0.00 86 1023.6
20201025221527 38 98 0.0 0.0 0.00 0.03 0.00 85 1023.6
20201025220021 38 98 0.0 0.0 0.00 0.03 0.00 85 1023.7
20201025214532 39 98 0.0 1.0 0.00 0.03 0.00 84 1023.8
20201025213032 39 98 0.0 1.0 0.00 0.03 0.00 82 1023.8
20201025211518 39 83 0.0 2.0 0.00 0.03 0.00 82 1023.8
20201025210018 40 35 0.0 4.0 0.00 0.03 0.00 81 1023.7
20201025204526 40 91 0.0 1.0 0.00 0.03 0.00 82 1023.7
20201025203048 40 120 0.0 1.0 0.00 0.03 0.00 81 1023.7
20201025201515 41 329 0.0 1.0 0.00 0.03 0.00 80 1023.9
20201025200012 41 227 0.0 1.0 0.00 0.03 0.00 80 1023.9
20201025194501 41 112 0.0 2.0 0.00 0.03 0.00 80 1024.0
20201025193018 40 95 0.0 2.0 0.00 0.03 0.00 80 1023.9
20201025191611 40 101 0.0 1.0 0.00 0.03 0.00 80 1023.8
20201025190123 40 63 0.0 1.0 0.00 0.03 0.00 79 1024.1
20201025184726 41 111 0.0 1.0 0.00 0.03 0.00 79 1024.2
20201025183225 41 54 0.0 1.0 0.00 0.03 0.00 80 1024.0
20201025181650 41 103 0.0 1.0 0.00 0.03 0.00 78 1024.2
20201025180203 41 267 0.0 2.0 0.00 0.03 0.00 77 1024.6
20201025174731 41 217 0.0 1.0 0.00 0.03 0.00 78 1025.1
20201025173118 41 267 0.0 1.0 0.00 0.03 0.00 81 1025.1
20201025171627 40 288 0.0 1.0 0.00 0.03 0.00 83 1025.4
20201025170232 39 228 0.0 1.0 0.00 0.03 0.00 86 1025.8
20201025164601 38 275 0.0 1.0 0.00 0.03 0.00 87 1026.0
20201025163132 38 259 0.0 0.0 0.00 0.03 0.00 91 1026.0
20201025161620 37 243 0.0 1.0 0.00 0.03 0.00 92 1026.1
20201025160107 36 238 0.0 1.0 0.00 0.03 0.00 93 1026.2
20201025154620 36 236 0.0 1.0 0.00 0.03 0.00 91 1026.2
20201025153106 36 238 0.0 1.0 0.00 0.03 0.00 90 1026.2
20201025151600 35 231 0.0 1.0 0.00 0.03 0.00 89 1026.2
20201025150058 35 141 0.0 0.0 0.00 0.03 0.00 88 1026.0
20201025144538 35 141 0.0 0.0 0.00 0.03 0.00 88 1026.1
20201025143115 34 141 0.0 0.0 0.00 0.03 0.00 88 1026.1
20201025141635 34 141 0.0 0.0 0.00 0.03 0.00 88 1026.2
20201025140038 33 141 0.0 0.0 0.00 0.03 0.00 88 1026.3
20201025134529 33 141 0.0 0.0 0.00 0.03 0.00 88 1026.4
20201025133042 32 143 0.0 0.0 0.00 0.03 0.00 88 1026.3
20201025131532 32 117 0.0 0.0 0.00 0.03 0.00 88 1026.1
20201025130027 32 117 0.0 0.0 0.00 0.03 0.00 89 1025.8
20201025124542 31 117 0.0 0.0 0.00 0.03 0.00 89 1025.6
20201025123034 31 117 0.0 0.0 0.00 0.03 0.00 89 1025.6
20201025121519 31 117 0.0 0.0 0.00 0.03 0.00 89 1025.6
20201025120116 31 117 0.0 0.0 0.00 0.03 0.00 89 1025.8
20201025114538 31 117 0.0 0.0 0.00 0.03 0.00 89 1025.8
20201025113016 31 117 0.0 0.0 0.00 0.03 0.00 90 1025.5
20201025111523 32 117 0.0 0.0 0.00 0.03 0.00 89 1025.5
20201025110027 32 117 0.0 0.0 0.00 0.03 0.00 89 1025.5